Flag for Germany Weather past 2 weeks in Lage, North Rhine-Westphalia, Germany

Now
39 °F

Low clouds.


Feels Like: 35 °F
Forecast: 35 / 42 °F
Wind: 5 mph from West

Location: Bad Lippspringe

Current Time: Jan 27, 2015 at 2:14:46 PM

Latest Report: Jan 27, 2015 at 2:00 PM


Visibility: 12 mi

Pressure: 30.12 "Hg

Humidity: 92%

Dew point: 37 °F

Location of LageLocation

Historic Weather in Lage — Graph

°F

Lage temperature yesterday

Maximum temperature yesterday: 40 °F (at 8:00 PM)
Minimum temperature yesterday: 35 °F (at 3:00 AM)
Average temperature yesterday: 37 °F

Past Weeks' High & Low Weather Summary

 TemperatureHumidityPressure
High53 °F (Jan 13, 1:00 PM)100% (Jan 24, 7:00 PM)30.39 "Hg (Jan 24, 7:00 PM)
Low25 °F (Jan 24, 4:00 AM)58% (Jan 13, 1:00 PM)29.47 "Hg (Jan 15, 4:00 PM)
Average36 °F84%29.97 "Hg
* Reported Jan 12 1:00 PM — Jan 27 1:00 PM, Lage, Weather by CustomWeather, © 2014

Note: Actual official high and low records may vary slightly from our data, if they occured in-between our weather recording intervals... More about our weather records

Advertising

Lage weather history for previous 24 hours

 ConditionsComfort  
Time TempWeatherWind HumidityBarometerVisibility
1:00 PM
Jan 27
37 °FLow clouds.5 mph95%30.14 "Hg12 mi
12:00 PM37 °FLight rain. Low clouds.5 mph95%30.14 "Hg3 mi
11:00 AM37 °FLow clouds.5 mph95%30.14 "Hg11 mi
10:00 AM36 °FRain. Low clouds.5 mph94%30.13 "Hg2 mi
9:00 AM36 °FLow clouds.5 mph93%30.13 "Hg13 mi
8:00 AM36 °FLow clouds.3 mph95%30.11 "Hg11 mi
7:00 AM35 °FLow clouds.5 mph96%30.10 "Hg11 mi
6:00 AM36 °FLow clouds.6 mph92%30.10 "Hg18 mi
5:00 AM36 °FLow clouds.5 mph93%30.09 "Hg17 mi
4:00 AM36 °FLow clouds.6 mph93%30.08 "Hg18 mi
3:00 AM37 °FDrizzle. Low clouds.5 mph94%30.07 "Hg12 mi
2:00 AM37 °FLow clouds.5 mph95%30.06 "Hg12 mi
1:00 AM37 °FLight freezing rain. Low clouds.5 mph95%30.06 "Hg8 mi
12:00 AM38 °FLow clouds.3 mph95%30.05 "Hg13 mi
11:00 PM
Jan 26
38 °FOvercast.5 mph93%30.04 "Hg18 mi
10:00 PM39 °FLow clouds.5 mph92%30.03 "Hg16 mi
9:00 PM40 °FOvercast.5 mph93%30.02 "Hg9 mi
8:00 PM40 °FLow clouds.3 mph99%30.00 "Hg3 mi
7:00 PM40 °FDrizzle. Low clouds.3 mph98%30.00 "Hg4 mi
6:00 PM39 °FLight freezing rain. Low clouds.3 mph99%30.00 "Hg1 mi
5:00 PM38 °FLight freezing rain. Low clouds.2 mph100%29.99 "Hg2 mi
4:00 PM38 °FDrizzle. Low clouds.3 mph100%30.01 "Hg1 mi
3:00 PM38 °FDrizzle. Low clouds.2 mph97%30.03 "Hg4 mi
2:00 PM38 °FLight rain. Overcast.3 mph94%30.06 "Hg9 mi
Weather by CustomWeather, © 2014

See weather overviewHow to use our weather pages